Time,TemperatureF,DewpointF,PressureIn,WindDirection,WindDirectionDegrees,WindSpeedMPH,WindSpeedGustMPH,Humidity,HourlyPrecipIn,Conditions,Clouds,dailyrainin,SoftwareType,DateUTC
2013-04-22 00:01:00,27.1,15.1,30.27,North,0,0.0,0.0,60,0.00,,---,0.00,VWS V14.01,2013-04-22 06:01:00,
2013-04-22 00:06:00,27.0,13.4,30.27,North,357,3.6,4.5,56,0.00,,---,0.00,VWS V14.01,2013-04-22 06:06:00,
2013-04-22 00:11:00,27.0,13.0,30.27,NNE,15,5.8,6.3,55,0.00,,---,0.00,VWS V14.01,2013-04-22 06:11:00,
2013-04-22 00:16:00,27.0,13.4,30.27,NW,312,2.2,4.0,56,0.00,,---,0.00,VWS V14.01,2013-04-22 06:16:00,
2013-04-22 00:21:00,27.0,13.0,30.27,WNW,297,3.6,5.4,55,0.00,,---,0.00,VWS V14.01,2013-04-22 06:21:00,
2013-04-22 00:26:00,27.0,13.0,30.24,North,9,2.2,5.4,55,0.00,,---,0.00,VWS V14.01,2013-04-22 06:26:00,
2013-04-22 00:31:00,26.8,12.8,30.24,North,1,3.1,5.8,55,0.00,,---,0.00,VWS V14.01,2013-04-22 06:31:00,
2013-04-22 00:36:00,26.8,12.4,30.24,NNW,327,0.0,5.8,54,0.00,,---,0.00,VWS V14.01,2013-04-22 06:36:00,
2013-04-22 00:41:00,26.8,12.0,30.24,North,0,3.6,5.8,53,0.00,,---,0.00,VWS V14.01,2013-04-22 06:41:00,
2013-04-22 00:46:00,27.0,11.7,30.27,North,357,0.0,3.6,52,0.00,,---,0.00,VWS V14.01,2013-04-22 06:46:00,
2013-04-22 00:51:00,27.0,12.1,30.27,NW,319,0.0,3.6,53,0.00,,---,0.00,VWS V14.01,2013-04-22 06:51:00,
2013-04-22 00:56:00,26.8,12.0,30.27,North,357,2.7,4.0,53,0.00,,---,0.00,VWS V14.01,2013-04-22 06:56:00,
2013-04-22 01:01:00,26.8,12.0,30.27,NW,316,2.7,3.6,53,0.00,,---,0.00,VWS V14.01,2013-04-22 07:01:00,
2013-04-22 01:06:00,26.6,12.2,30.27,NW,307,0.0,5.8,54,0.00,,---,0.00,VWS V14.01,2013-04-22 07:06:00,
2013-04-22 01:11:00,26.4,12.0,30.27,NNW,340,0.0,5.8,54,0.00,,---,0.00,VWS V14.01,2013-04-22 07:11:00,
2013-04-22 01:16:00,26.2,11.0,30.27,North,353,3.6,3.6,52,0.00,,---,0.00,VWS V14.01,2013-04-22 07:16:00,
2013-04-22 01:21:00,26.2,11.0,30.27,North,0,0.0,3.6,52,0.00,,---,0.00,VWS V14.01,2013-04-22 07:21:00,
2013-04-22 01:26:00,26.2,11.0,30.27,North,353,3.1,4.9,52,0.00,,---,0.00,VWS V14.01,2013-04-22 07:26:00,
2013-04-22 01:31:00,26.1,10.9,30.27,NNW,341,2.2,4.9,52,0.00,,---,0.00,VWS V14.01,2013-04-22 07:31:00,
2013-04-22 01:36:00,26.1,10.9,30.27,North,353,2.2,4.9,52,0.00,,---,0.00,VWS V14.01,2013-04-22 07:36:00,
2013-04-22 01:41:00,25.9,10.7,30.27,North,0,4.9,6.3,52,0.00,,---,0.00,VWS V14.01,2013-04-22 07:41:00,
2013-04-22 01:46:00,25.9,10.7,30.30,NNW,336,0.0,5.4,52,0.00,,---,0.00,VWS V14.01,2013-04-22 07:46:00,
2013-04-22 01:51:00,25.7,10.9,30.30,North,4,0.0,5.4,53,0.00,,---,0.00,VWS V14.01,2013-04-22 07:51:00,
2013-04-22 01:56:00,25.5,11.2,30.30,NW,305,2.7,6.3,54,0.00,,---,0.00,VWS V14.01,2013-04-22 07:56:00,
2013-04-22 02:01:00,25.3,11.4,30.30,NW,314,4.0,4.0,55,0.00,,---,0.00,VWS V14.01,2013-04-22 08:01:00,
2013-04-22 02:06:00,25.3,11.9,30.30,NNW,328,0.0,4.0,56,0.00,,---,0.00,VWS V14.01,2013-04-22 08:06:00,
2013-04-22 02:11:00,25.2,12.1,30.30,NW,324,2.2,4.0,57,0.00,,---,0.00,VWS V14.01,2013-04-22 08:11:00,
2013-04-22 02:16:00,25.2,12.1,30.30,NW,308,0.0,4.0,57,0.00,,---,0.00,VWS V14.01,2013-04-22 08:16:00,
2013-04-22 02:21:00,25.2,12.5,30.30,NW,314,0.0,4.0,58,0.00,,---,0.00,VWS V14.01,2013-04-22 08:21:00,
2013-04-22 02:26:00,25.2,12.1,30.30,NW,313,2.2,4.0,57,0.00,,---,0.00,VWS V14.01,2013-04-22 08:26:00,
2013-04-22 02:31:00,25.2,12.1,30.30,WNW,288,2.7,3.1,57,0.00,,---,0.00,VWS V14.01,2013-04-22 08:31:00,
2013-04-22 02:36:00,25.0,11.1,30.30,NNW,348,3.6,4.5,55,0.00,,---,0.00,VWS V14.01,2013-04-22 08:36:00,
2013-04-22 02:41:00,25.0,11.1,30.30,WNW,303,3.6,4.5,55,0.00,,---,0.00,VWS V14.01,2013-04-22 08:41:00,
2013-04-22 02:46:00,25.0,10.3,30.30,NW,322,6.3,6.3,53,0.00,,---,0.00,VWS V14.01,2013-04-22 08:46:00,
2013-04-22 02:51:00,25.2,10.4,30.30,NW,318,2.7,6.3,53,0.00,,---,0.00,VWS V14.01,2013-04-22 08:51:00,
2013-04-22 02:56:00,25.2,10.4,30.30,NNW,331,2.7,6.3,53,0.00,,---,0.00,VWS V14.01,2013-04-22 08:56:00,
2013-04-22 03:01:00,25.0,9.9,30.30,North,4,3.1,4.0,52,0.00,,---,0.00,VWS V14.01,2013-04-22 09:01:00,
2013-04-22 03:06:00,25.2,9.6,30.30,NNW,344,2.7,6.3,51,0.00,,---,0.00,VWS V14.01,2013-04-22 09:06:00,
2013-04-22 03:11:00,25.2,9.1,30.30,WNW,303,2.7,6.3,50,0.00,,---,0.00,VWS V14.01,2013-04-22 09:11:00,
2013-04-22 03:16:00,25.2,9.1,30.30,WNW,303,2.7,5.4,50,0.00,,---,0.00,VWS V14.01,2013-04-22 09:16:00,
2013-04-22 03:21:00,25.2,8.7,30.30,NNW,337,5.4,5.4,49,0.00,,---,0.00,VWS V14.01,2013-04-22 09:21:00,
2013-04-22 03:26:00,25.2,8.2,30.30,NW,326,5.4,5.4,48,0.00,,---,0.00,VWS V14.01,2013-04-22 09:26:00,
2013-04-22 03:31:00,25.2,8.2,30.30,West,273,0.0,5.8,48,0.00,,---,0.00,VWS V14.01,2013-04-22 09:31:00,
2013-04-22 03:36:00,25.2,7.8,30.30,NW,314,0.0,5.8,47,0.00,,---,0.00,VWS V14.01,2013-04-22 09:36:00,
2013-04-22 03:41:00,25.2,7.8,30.30,NW,312,3.1,5.8,47,0.00,,---,0.00,VWS V14.01,2013-04-22 09:41:00,
2013-04-22 03:46:00,25.0,7.6,30.30,NW,312,2.2,4.0,47,0.00,,---,0.00,VWS V14.01,2013-04-22 09:46:00,
2013-04-22 03:51:00,25.0,7.6,30.30,WNW,303,0.0,5.8,47,0.00,,---,0.00,VWS V14.01,2013-04-22 09:51:00,
2013-04-22 03:56:00,25.0,7.6,30.30,NW,318,0.0,5.8,47,0.00,,---,0.00,VWS V14.01,2013-04-22 09:56:00,
2013-04-22 04:01:00,25.0,7.1,30.30,NW,321,2.2,4.0,46,0.00,,---,0.00,VWS V14.01,2013-04-22 10:01:00,
2013-04-22 04:06:00,25.0,6.7,30.30,WNW,289,2.7,5.4,45,0.00,,---,0.00,VWS V14.01,2013-04-22 10:06:00,
2013-04-22 04:11:00,25.0,6.7,30.30,NW,316,3.1,8.3,45,0.00,,---,0.00,VWS V14.01,2013-04-22 10:11:00,
2013-04-22 04:16:00,25.0,6.7,30.33,NW,314,3.6,4.0,45,0.00,,---,0.00,VWS V14.01,2013-04-22 10:16:00,
2013-04-22 04:21:00,25.0,6.7,30.33,NW,321,3.6,4.0,45,0.00,,---,0.00,VWS V14.01,2013-04-22 10:21:00,
2013-04-22 04:26:00,25.0,6.2,30.33,NW,307,4.0,5.4,44,0.00,,---,0.00,VWS V14.01,2013-04-22 10:26:00,
2013-04-22 04:31:00,25.0,6.7,30.33,NNW,334,3.6,3.6,45,0.00,,---,0.00,VWS V14.01,2013-04-22 10:31:00,
2013-04-22 04:36:00,25.0,6.2,30.33,North,8,3.1,4.0,44,0.00,,---,0.00,VWS V14.01,2013-04-22 10:36:00,
2013-04-22 04:41:00,25.2,6.3,30.33,NW,315,0.0,4.9,44,0.00,,---,0.00,VWS V14.01,2013-04-22 10:41:00,
2013-04-22 04:46:00,25.2,6.3,30.33,NW,313,3.6,5.4,44,0.00,,---,0.00,VWS V14.01,2013-04-22 10:46:00,
2013-04-22 04:51:00,25.2,6.3,30.33,NW,326,0.0,5.8,44,0.00,,---,0.00,VWS V14.01,2013-04-22 10:51:00,
2013-04-22 04:56:00,25.2,6.3,30.33,NNW,329,0.0,5.8,44,0.00,,---,0.00,VWS V14.01,2013-04-22 10:56:00,
2013-04-22 05:01:00,25.2,6.3,30.33,North,357,0.0,4.5,44,0.00,,---,0.00,VWS V14.01,2013-04-22 11:01:00,
2013-04-22 05:06:00,25.2,6.3,30.33,NW,320,0.0,4.5,44,0.00,,---,0.00,VWS V14.01,2013-04-22 11:06:00,
2013-04-22 05:11:00,25.0,6.2,30.33,WNW,291,2.7,5.8,44,0.00,,---,0.00,VWS V14.01,2013-04-22 11:11:00,
2013-04-22 05:16:00,25.0,6.2,30.33,North,353,2.7,4.5,44,0.00,,---,0.00,VWS V14.01,2013-04-22 11:16:00,
2013-04-22 05:21:00,24.8,6.0,30.33,NW,313,2.7,6.3,44,0.00,,---,0.00,VWS V14.01,2013-04-22 11:21:00,
2013-04-22 05:26:00,24.6,5.8,30.33,NW,312,3.1,6.3,44,0.00,,---,0.00,VWS V14.01,2013-04-22 11:26:00,
2013-04-22 05:31:00,24.4,5.7,30.33,NW,315,2.7,3.1,44,0.00,,---,0.00,VWS V14.01,2013-04-22 11:31:00,
2013-04-22 05:36:00,24.4,5.7,30.33,NW,318,0.0,4.0,44,0.00,,---,0.00,VWS V14.01,2013-04-22 11:36:00,
2013-04-22 05:41:00,24.4,5.7,30.33,WNW,297,3.6,4.0,44,0.00,,---,0.00,VWS V14.01,2013-04-22 11:41:00,
2013-04-22 05:46:00,24.1,5.3,30.36,NNW,335,0.0,0.0,44,0.00,,---,0.00,VWS V14.01,2013-04-22 11:46:00,
2013-04-22 05:51:00,23.9,5.2,30.36,North,353,0.0,5.4,44,0.00,,---,0.00,VWS V14.01,2013-04-22 11:51:00,
2013-04-22 05:56:00,23.7,5.0,30.36,North,0,0.0,5.4,44,0.00,,---,0.00,VWS V14.01,2013-04-22 11:56:00,
2013-04-22 06:01:00,23.5,4.8,30.36,North,2,0.0,2.7,44,0.00,,---,0.00,VWS V14.01,2013-04-22 12:01:00,
2013-04-22 06:06:00,23.2,5.0,30.36,North,8,0.0,3.6,45,0.00,,---,0.00,VWS V14.01,2013-04-22 12:06:00,
2013-04-22 06:11:00,22.6,4.5,30.36,North,8,0.0,3.6,45,0.00,,---,0.00,VWS V14.01,2013-04-22 12:11:00,
2013-04-22 06:16:00,21.9,3.8,30.36,NNE,14,0.0,0.0,45,0.00,,---,0.00,VWS V14.01,2013-04-22 12:16:00,
2013-04-22 06:21:00,21.4,3.8,30.36,NNE,14,0.0,0.0,46,0.00,,---,0.00,VWS V14.01,2013-04-22 12:21:00,
2013-04-22 06:26:00,21.0,4.0,30.36,NNE,14,0.0,0.0,47,0.00,,---,0.00,VWS V14.01,2013-04-22 12:26:00,
2013-04-22 06:31:00,20.8,4.7,30.36,NNE,14,0.0,0.0,49,0.00,,---,0.00,VWS V14.01,2013-04-22 12:31:00,
2013-04-22 06:36:00,20.8,5.1,30.36,NNE,14,0.0,0.0,50,0.00,,---,0.00,VWS V14.01,2013-04-22 12:36:00,
2013-04-22 06:41:00,20.7,5.0,30.36,NNE,14,0.0,0.0,50,0.00,,---,0.00,VWS V14.01,2013-04-22 12:41:00,
2013-04-22 06:46:00,20.7,5.0,30.36,NNE,14,0.0,0.0,50,0.00,,---,0.00,VWS V14.01,2013-04-22 12:46:00,
2013-04-22 06:51:00,20.8,5.1,30.36,NNE,14,0.0,0.0,50,0.00,,---,0.00,VWS V14.01,2013-04-22 12:51:00,
2013-04-22 06:56:00,21.0,5.3,30.39,NNE,14,0.0,0.0,50,0.00,,---,0.00,VWS V14.01,2013-04-22 12:56:00,
2013-04-22 07:01:00,21.2,5.5,30.39,NNE,14,0.0,0.0,50,0.00,,---,0.00,VWS V14.01,2013-04-22 13:01:00,
2013-04-22 07:06:00,21.4,5.6,30.39,NNE,14,0.0,0.0,50,0.00,,---,0.00,VWS V14.01,2013-04-22 13:06:00,
2013-04-22 07:11:00,21.6,5.8,30.39,NNE,14,0.0,0.0,50,0.00,,---,0.00,VWS V14.01,2013-04-22 13:11:00,
2013-04-22 07:16:00,21.9,6.1,30.39,NNE,14,0.0,0.0,50,0.00,,---,0.00,VWS V14.01,2013-04-22 13:16:00,
2013-04-22 07:21:00,22.1,6.3,30.39,NNE,14,0.0,0.0,50,0.00,,---,0.00,VWS V14.01,2013-04-22 13:21:00,
2013-04-22 07:26:00,22.5,6.6,30.39,NNE,14,0.0,0.0,50,0.00,,---,0.00,VWS V14.01,2013-04-22 13:26:00,
2013-04-22 07:31:00,22.6,6.8,30.39,NNE,14,0.0,0.0,50,0.00,,---,0.00,VWS V14.01,2013-04-22 13:31:00,
2013-04-22 07:36:00,23.0,7.6,30.39,NNE,14,0.0,0.0,51,0.00,,---,0.00,VWS V14.01,2013-04-22 13:36:00,
2013-04-22 07:41:00,23.5,7.7,30.39,ENE,70,0.0,3.1,50,0.00,,---,0.00,VWS V14.01,2013-04-22 13:41:00,
2013-04-22 07:46:00,23.9,7.1,30.39,ENE,75,0.0,0.0,48,0.00,,---,0.00,VWS V14.01,2013-04-22 13:46:00,
2013-04-22 07:51:00,24.4,7.6,30.39,ENE,75,0.0,0.0,48,0.00,,---,0.00,VWS V14.01,2013-04-22 13:51:00,
2013-04-22 07:56:00,25.2,7.3,30.39,North,357,0.0,0.0,46,0.00,,---,0.00,VWS V14.01,2013-04-22 13:56:00,
2013-04-22 08:01:00,25.3,6.5,30.39,North,10,0.0,3.1,44,0.00,,---,0.00,VWS V14.01,2013-04-22 14:01:00,
2013-04-22 08:07:00,25.7,6.8,30.39,NE,38,0.0,3.1,44,0.00,,---,0.00,VWS V14.01,2013-04-22 14:07:00,
2013-04-22 08:12:00,26.1,7.2,30.42,NNE,12,0.0,3.1,44,0.00,,---,0.00,VWS V14.01,2013-04-22 14:12:00,
2013-04-22 08:17:00,26.4,7.0,30.42,North,8,0.0,0.0,43,0.00,,---,0.00,VWS V14.01,2013-04-22 14:17:00,
2013-04-22 08:22:00,27.0,7.5,30.42,North,357,0.0,0.0,43,0.00,,---,0.00,VWS V14.01,2013-04-22 14:22:00,
2013-04-22 08:27:00,27.9,8.8,30.42,ENE,68,0.0,0.0,44,0.00,,---,0.00,VWS V14.01,2013-04-22 14:27:00,
2013-04-22 08:32:00,28.6,8.9,30.42,ENE,68,0.0,0.0,43,0.00,,---,0.00,VWS V14.01,2013-04-22 14:32:00,
2013-04-22 08:37:00,28.8,8.6,30.42,North,8,0.0,0.0,42,0.00,,---,0.00,VWS V14.01,2013-04-22 14:37:00,
2013-04-22 08:42:00,28.4,8.2,30.42,North,6,0.0,3.6,42,0.00,,---,0.00,VWS V14.01,2013-04-22 14:42:00,
2013-04-22 08:47:00,28.4,8.2,30.42,NNE,21,0.0,0.0,42,0.00,,---,0.00,VWS V14.01,2013-04-22 14:47:00,
2013-04-22 08:52:00,28.8,8.6,30.42,NE,56,2.7,3.1,42,0.00,,---,0.00,VWS V14.01,2013-04-22 14:52:00,
2013-04-22 08:57:00,29.3,9.1,30.42,NNE,29,0.0,3.1,42,0.00,,---,0.00,VWS V14.01,2013-04-22 14:57:00,
2013-04-22 09:02:00,29.7,9.4,30.42,NE,47,2.2,3.1,42,0.00,,---,0.00,VWS V14.01,2013-04-22 15:02:00,
2013-04-22 09:07:00,30.0,9.2,30.42,NE,47,2.2,3.1,41,0.00,,---,0.00,VWS V14.01,2013-04-22 15:07:00,
2013-04-22 09:12:00,30.4,9.0,30.42,North,1,3.1,3.6,40,0.00,,---,0.00,VWS V14.01,2013-04-22 15:12:00,
2013-04-22 09:17:00,30.9,9.4,30.42,NNE,23,0.0,3.1,40,0.00,,---,0.00,VWS V14.01,2013-04-22 15:17:00,
2013-04-22 09:22:00,31.5,9.9,30.42,NNE,23,3.6,3.6,40,0.00,,---,0.00,VWS V14.01,2013-04-22 15:22:00,
2013-04-22 09:27:00,32.2,10.0,30.42,NE,47,2.7,3.6,39,0.00,,---,0.00,VWS V14.01,2013-04-22 15:27:00,
2013-04-22 09:32:00,32.7,9.9,30.42,NNE,16,2.2,3.6,38,0.00,,---,0.00,VWS V14.01,2013-04-22 15:32:00,
2013-04-22 09:37:00,33.6,11.3,30.42,ENE,74,3.1,3.6,39,0.00,,---,0.00,VWS V14.01,2013-04-22 15:37:00,
2013-04-22 09:42:00,34.5,10.9,30.42,NE,37,2.7,4.0,37,0.00,,---,0.00,VWS V14.01,2013-04-22 15:42:00,
2013-04-22 09:47:00,34.5,9.7,30.42,NNE,16,2.7,4.9,35,0.00,,---,0.00,VWS V14.01,2013-04-22 15:47:00,
2013-04-22 09:52:00,33.8,9.1,30.42,NNE,18,2.7,4.9,35,0.00,,---,0.00,VWS V14.01,2013-04-22 15:52:00,
2013-04-22 09:57:00,33.6,8.9,30.42,NNE,12,4.0,5.4,35,0.00,,---,0.00,VWS V14.01,2013-04-22 15:57:00,
2013-04-22 10:02:00,32.7,7.5,30.42,North,2,3.1,5.4,34,0.00,,---,0.00,VWS V14.01,2013-04-22 16:02:00,
2013-04-22 10:07:00,34.3,8.9,30.42,NNE,29,2.7,5.4,34,0.00,,---,0.00,VWS V14.01,2013-04-22 16:07:00,
2013-04-22 10:12:00,34.5,9.1,30.42,NNE,17,3.1,5.4,34,0.00,,---,0.00,VWS V14.01,2013-04-22 16:12:00,
2013-04-22 10:17:00,34.7,8.6,30.42,NNE,18,2.2,3.6,33,0.00,,---,0.00,VWS V14.01,2013-04-22 16:17:00,
2013-04-22 10:22:00,34.2,8.1,30.42,North,9,3.1,5.4,33,0.00,,---,0.00,VWS V14.01,2013-04-22 16:22:00,
2013-04-22 10:27:00,34.5,8.4,30.42,NNE,23,3.1,5.4,33,0.00,,---,0.00,VWS V14.01,2013-04-22 16:27:00,
2013-04-22 10:32:00,35.6,8.7,30.42,ENE,67,3.6,4.0,32,0.00,,---,0.00,VWS V14.01,2013-04-22 16:32:00,
2013-04-22 10:37:00,35.6,8.7,30.42,NNE,31,2.7,5.8,32,0.00,,---,0.00,VWS V14.01,2013-04-22 16:37:00,
2013-04-22 10:42:00,36.1,9.1,30.42,ENE,75,6.3,6.3,32,0.00,,---,0.00,VWS V14.01,2013-04-22 16:42:00,
2013-04-22 10:47:00,36.1,8.4,30.42,NNE,20,5.4,5.4,31,0.00,,---,0.00,VWS V14.01,2013-04-22 16:47:00,
2013-04-22 10:52:00,36.1,9.1,30.42,East,88,3.6,6.3,32,0.00,,---,0.00,VWS V14.01,2013-04-22 16:52:00,
2013-04-22 10:57:00,36.0,8.3,30.42,NNE,19,3.6,6.3,31,0.00,,---,0.00,VWS V14.01,2013-04-22 16:57:00,
2013-04-22 11:02:00,36.3,8.6,30.42,NNE,21,3.6,5.4,31,0.00,,---,0.00,VWS V14.01,2013-04-22 17:02:00,
2013-04-22 11:07:00,35.6,8.0,30.42,ENE,58,3.1,5.8,31,0.00,,---,0.00,VWS V14.01,2013-04-22 17:07:00,
2013-04-22 11:12:00,37.0,9.9,30.45,ENE,76,0.0,5.8,32,0.04,,---,0.04,VWS V14.01,2013-04-22 17:12:00,
2013-04-22 11:17:00,38.1,10.2,30.45,ENE,59,2.2,3.6,31,0.04,,---,0.04,VWS V14.01,2013-04-22 17:17:00,
2013-04-22 11:22:00,37.9,10.0,30.45,ENE,59,3.1,3.6,31,0.04,,---,0.04,VWS V14.01,2013-04-22 17:22:00,
2013-04-22 11:27:00,37.8,9.9,30.45,ENE,60,3.6,3.6,31,0.04,,---,0.04,VWS V14.01,2013-04-22 17:27:00,
2013-04-22 11:32:00,38.3,10.3,30.45,NNE,33,2.2,3.6,31,0.04,,---,0.04,VWS V14.01,2013-04-22 17:32:00,
2013-04-22 11:37:00,36.7,8.9,30.45,NNW,343,3.1,5.4,31,0.04,,---,0.04,VWS V14.01,2013-04-22 17:37:00,
2013-04-22 11:42:00,36.3,7.9,30.45,North,0,0.0,6.3,30,0.04,,---,0.04,VWS V14.01,2013-04-22 17:42:00,
2013-04-22 11:47:00,37.0,9.2,30.45,East,100,3.1,4.0,31,0.04,,---,0.04,VWS V14.01,2013-04-22 17:47:00,
2013-04-22 11:52:00,38.1,10.2,30.45,ENE,72,0.0,4.0,31,0.04,,---,0.04,VWS V14.01,2013-04-22 17:52:00,
2013-04-22 11:57:00,37.8,9.1,30.42,NNE,21,3.6,4.9,30,0.04,,---,0.04,VWS V14.01,2013-04-22 17:57:00,
2013-04-22 12:02:00,36.7,8.9,30.42,North,0,5.4,5.4,31,0.04,,---,0.04,VWS V14.01,2013-04-22 18:02:00,
2013-04-22 12:07:00,37.6,9.7,30.42,NE,41,0.0,5.4,31,0.04,,---,0.04,VWS V14.01,2013-04-22 18:07:00,
2013-04-22 12:12:00,37.9,10.0,30.42,NNE,31,4.0,5.4,31,0.04,,---,0.04,VWS V14.01,2013-04-22 18:12:00,
2013-04-22 12:17:00,38.5,10.5,30.42,ESE,105,4.9,7.6,31,0.00,,---,0.04,VWS V14.01,2013-04-22 18:17:00,
2013-04-22 12:22:00,38.7,10.6,30.42,ENE,72,3.1,7.6,31,0.00,,---,0.04,VWS V14.01,2013-04-22 18:22:00,
2013-04-22 12:27:00,38.5,10.5,30.42,NNE,15,3.6,7.6,31,0.00,,---,0.04,VWS V14.01,2013-04-22 18:27:00,
2013-04-22 12:32:00,37.0,9.2,30.42,NW,324,2.7,4.0,31,0.00,,---,0.04,VWS V14.01,2013-04-22 18:32:00,
2013-04-22 12:37:00,37.2,9.4,30.42,NNE,19,6.3,6.3,31,0.00,,---,0.04,VWS V14.01,2013-04-22 18:37:00,
2013-04-22 12:42:00,37.8,9.9,30.42,NW,313,0.0,6.3,31,0.00,,---,0.04,VWS V14.01,2013-04-22 18:42:00,
2013-04-22 12:47:00,38.1,10.2,30.42,NE,56,2.7,5.4,31,0.00,,---,0.04,VWS V14.01,2013-04-22 18:47:00,
2013-04-22 12:52:00,37.9,10.0,30.42,NNW,342,2.7,5.4,31,0.00,,---,0.04,VWS V14.01,2013-04-22 18:52:00,
2013-04-22 12:57:00,38.3,10.3,30.42,ENE,77,2.7,7.6,31,0.00,,---,0.04,VWS V14.01,2013-04-22 18:57:00,
2013-04-22 13:02:00,39.2,11.1,30.42,ESE,123,0.0,4.9,31,0.00,,---,0.04,VWS V14.01,2013-04-22 19:02:00,
2013-04-22 13:07:00,39.2,10.4,30.42,NE,34,2.7,4.9,30,0.00,,---,0.04,VWS V14.01,2013-04-22 19:07:00,
2013-04-22 13:12:00,40.1,11.9,30.42,NNE,21,4.0,5.8,31,0.00,,---,0.04,VWS V14.01,2013-04-22 19:12:00,
2013-04-22 13:17:00,39.2,10.4,30.42,NW,321,4.0,5.8,30,0.00,,---,0.04,VWS V14.01,2013-04-22 19:17:00,
2013-04-22 13:22:00,39.0,11.0,30.42,North,353,2.2,8.1,31,0.00,,---,0.04,VWS V14.01,2013-04-22 19:22:00,
2013-04-22 13:27:00,41.0,12.0,30.42,WSW,243,2.7,8.1,30,0.00,,---,0.04,VWS V14.01,2013-04-22 19:27:00,
2013-04-22 13:32:00,42.1,12.1,30.42,NNW,327,2.7,5.4,29,0.00,,---,0.04,VWS V14.01,2013-04-22 19:32:00,
2013-04-22 13:37:00,42.4,12.4,30.42,NNW,342,5.4,6.3,29,0.00,,---,0.04,VWS V14.01,2013-04-22 19:37:00,
2013-04-22 13:42:00,41.2,11.4,30.42,WSW,250,3.6,6.3,29,0.00,,---,0.04,VWS V14.01,2013-04-22 19:42:00,
2013-04-22 13:47:00,42.3,12.3,30.42,SSW,203,0.0,4.0,29,0.00,,---,0.04,VWS V14.01,2013-04-22 19:47:00,
2013-04-22 13:52:00,43.7,12.8,30.42,NNE,19,4.0,8.7,28,0.00,,---,0.04,VWS V14.01,2013-04-22 19:52:00,
2013-04-22 13:57:00,41.5,11.7,30.42,WSW,256,3.6,8.7,29,0.00,,---,0.04,VWS V14.01,2013-04-22 19:57:00,
2013-04-22 14:02:00,44.2,14.0,30.42,West,279,0.0,5.4,29,0.00,,---,0.04,VWS V14.01,2013-04-22 20:02:00,
2013-04-22 14:07:00,46.8,15.4,30.42,WSW,245,4.0,5.4,28,0.00,,---,0.04,VWS V14.01,2013-04-22 20:07:00,
2013-04-22 14:12:00,46.8,14.6,30.42,NNW,334,3.6,5.4,27,0.00,,---,0.04,VWS V14.01,2013-04-22 20:12:00,
2013-04-22 14:17:00,46.0,14.8,30.42,NNE,31,3.1,4.9,28,0.00,,---,0.04,VWS V14.01,2013-04-22 20:17:00,
2013-04-22 14:22:00,44.6,12.7,30.42,West,264,2.7,9.6,27,0.00,,---,0.04,VWS V14.01,2013-04-22 20:22:00,
2013-04-22 14:27:00,46.0,14.8,30.42,NNE,28,3.1,9.6,28,0.00,,---,0.04,VWS V14.01,2013-04-22 20:27:00,
2013-04-22 14:32:00,46.6,14.4,30.42,ENE,77,4.9,5.4,27,0.00,,---,0.04,VWS V14.01,2013-04-22 20:32:00,
2013-04-22 14:37:00,47.7,15.3,30.42,East,80,2.7,5.4,27,0.00,,---,0.04,VWS V14.01,2013-04-22 20:37:00,
2013-04-22 14:42:00,47.8,15.5,30.42,ESE,114,5.8,5.8,27,0.00,,---,0.04,VWS V14.01,2013-04-22 20:42:00,
2013-04-22 14:47:00,45.7,11.9,30.42,North,349,3.1,5.4,25,0.00,,---,0.04,VWS V14.01,2013-04-22 20:47:00,
2013-04-22 14:52:00,44.1,10.5,30.42,NW,307,3.1,6.3,25,0.00,,---,0.04,VWS V14.01,2013-04-22 20:52:00,
2013-04-22 14:57:00,44.6,11.0,30.39,NW,304,4.9,6.3,25,0.00,,---,0.04,VWS V14.01,2013-04-22 20:57:00,
2013-04-22 15:02:00,45.0,11.3,30.39,ENE,77,4.0,4.0,25,0.00,,---,0.04,VWS V14.01,2013-04-22 21:02:00,
2013-04-22 15:07:00,46.2,12.4,30.39,ENE,70,0.0,5.4,25,0.00,,---,0.04,VWS V14.01,2013-04-22 21:07:00,
2013-04-22 15:12:00,43.9,8.5,30.42,North,10,6.3,8.1,23,0.00,,---,0.04,VWS V14.01,2013-04-22 21:12:00,
2013-04-22 15:17:00,42.8,7.6,30.42,North,0,3.1,6.3,23,0.00,,---,0.04,VWS V14.01,2013-04-22 21:17:00,
2013-04-22 15:22:00,44.1,10.5,30.42,NNW,348,2.7,8.7,25,0.00,,---,0.04,VWS V14.01,2013-04-22 21:22:00,
2013-04-22 15:27:00,44.6,11.0,30.39,North,353,2.7,8.7,25,0.00,,---,0.04,VWS V14.01,2013-04-22 21:27:00,
2013-04-22 15:33:00,45.9,9.2,30.39,North,357,4.0,4.0,22,0.00,,---,0.04,VWS V14.01,2013-04-22 21:33:00,
2013-04-22 15:38:00,46.0,9.3,30.39,ESE,105,3.1,6.3,22,0.00,,---,0.04,VWS V14.01,2013-04-22 21:38:00,
2013-04-22 15:43:00,46.8,9.9,30.39,North,357,4.0,8.1,22,0.00,,---,0.04,VWS V14.01,2013-04-22 21:43:00,
2013-04-22 15:48:00,45.1,8.6,30.39,NNE,33,2.7,6.3,22,0.00,,---,0.04,VWS V14.01,2013-04-22 21:48:00,
2013-04-22 15:53:00,45.3,8.7,30.39,North,0,5.8,6.3,22,0.00,,---,0.04,VWS V14.01,2013-04-22 21:53:00,
2013-04-22 15:58:00,44.6,8.1,30.39,NNE,20,5.4,6.3,22,0.00,,---,0.04,VWS V14.01,2013-04-22 21:58:00,
2013-04-22 16:03:00,44.1,8.6,30.39,North,357,10.1,11.0,23,0.00,,---,0.04,VWS V14.01,2013-04-22 22:03:00,
2013-04-22 16:08:00,44.1,8.6,30.39,East,84,4.9,11.0,23,0.00,,---,0.04,VWS V14.01,2013-04-22 22:08:00,
2013-04-22 16:13:00,45.3,8.7,30.39,NW,323,2.7,11.0,22,0.00,,---,0.04,VWS V14.01,2013-04-22 22:13:00,
2013-04-22 16:18:00,45.3,6.6,30.39,North,0,4.9,6.3,20,0.00,,---,0.04,VWS V14.01,2013-04-22 22:18:00,
2013-04-22 16:23:00,45.5,6.8,30.39,NNE,22,3.1,6.3,20,0.00,,---,0.04,VWS V14.01,2013-04-22 22:23:00,
2013-04-22 16:28:00,45.3,6.6,30.39,NNE,12,8.7,8.7,20,0.00,,---,0.04,VWS V14.01,2013-04-22 22:28:00,
2013-04-22 16:33:00,45.5,8.9,30.39,NNW,345,7.6,7.6,22,0.00,,---,0.04,VWS V14.01,2013-04-22 22:33:00,
2013-04-22 16:38:00,44.4,5.9,30.39,NNE,17,3.1,9.2,20,0.00,,---,0.04,VWS V14.01,2013-04-22 22:38:00,
2013-04-22 16:43:00,44.2,5.7,30.39,NE,34,8.1,9.2,20,0.00,,---,0.04,VWS V14.01,2013-04-22 22:43:00,
2013-04-22 16:48:00,44.2,5.7,30.39,West,267,2.7,6.3,20,0.00,,---,0.04,VWS V14.01,2013-04-22 22:48:00,
2013-04-22 16:53:00,46.4,6.4,30.39,NNW,331,2.2,6.3,19,0.00,,---,0.04,VWS V14.01,2013-04-22 22:53:00,
2013-04-22 16:58:00,45.3,6.6,30.36,North,353,2.7,8.3,20,0.00,,---,0.04,VWS V14.01,2013-04-22 22:58:00,
2013-04-22 17:03:00,45.5,6.8,30.36,NE,41,2.7,5.4,20,0.00,,---,0.04,VWS V14.01,2013-04-22 23:03:00,
2013-04-22 17:08:00,45.7,6.9,30.36,NNE,25,2.7,6.3,20,0.00,,---,0.04,VWS V14.01,2013-04-22 23:08:00,
2013-04-22 17:13:00,45.9,7.1,30.39,ENE,58,3.6,6.3,20,0.00,,---,0.04,VWS V14.01,2013-04-22 23:13:00,
2013-04-22 17:18:00,46.9,6.8,30.39,ENE,74,2.7,5.8,19,0.00,,---,0.04,VWS V14.01,2013-04-22 23:18:00,
2013-04-22 17:23:00,47.7,7.4,30.39,North,1,2.2,5.8,19,0.00,,---,0.04,VWS V14.01,2013-04-22 23:23:00,
2013-04-22 17:28:00,45.5,6.8,30.39,North,0,3.6,8.1,20,0.00,,---,0.04,VWS V14.01,2013-04-22 23:28:00,
2013-04-22 17:33:00,44.2,5.7,30.39,North,5,3.6,7.6,20,0.00,,---,0.04,VWS V14.01,2013-04-22 23:33:00,
2013-04-22 17:38:00,44.8,6.2,30.39,NE,51,2.7,7.6,20,0.00,,---,0.00,VWS V14.01,2013-04-22 23:38:00,
2013-04-22 17:43:00,46.4,6.4,30.39,ENE,74,4.0,7.6,19,0.00,,---,0.04,VWS V14.01,2013-04-22 23:43:00,
2013-04-22 17:48:00,46.6,6.5,30.39,North,0,0.0,5.4,19,0.00,,---,0.04,VWS V14.01,2013-04-22 23:48:00,
2013-04-22 17:53:00,46.0,7.2,30.39,NNE,14,4.0,5.8,20,0.00,,---,0.04,VWS V14.01,2013-04-22 23:53:00,
2013-04-22 17:58:00,45.1,6.5,30.39,NNE,12,0.0,7.6,20,0.00,,---,0.04,VWS V14.01,2013-04-22 23:58:00,
2013-04-22 18:03:00,44.8,6.2,30.39,North,6,3.1,3.1,20,0.00,,---,0.04,VWS V14.01,2013-04-23 00:03:00,
2013-04-22 18:08:00,43.9,5.4,30.39,NE,40,2.2,6.3,20,0.00,,---,0.04,VWS V14.01,2013-04-23 00:08:00,
2013-04-22 18:13:00,43.9,5.4,30.39,North,0,3.1,6.3,20,0.00,,---,0.04,VWS V14.01,2013-04-23 00:13:00,
2013-04-22 18:18:00,43.7,5.3,30.39,NE,47,2.7,3.6,20,0.00,,---,0.04,VWS V14.01,2013-04-23 00:18:00,
2013-04-22 18:23:00,44.1,5.6,30.39,NNE,21,5.4,6.7,20,0.00,,---,0.04,VWS V14.01,2013-04-23 00:23:00,
2013-04-22 18:28:00,43.2,4.8,30.39,North,357,3.6,6.7,20,0.00,,---,0.04,VWS V14.01,2013-04-23 00:28:00,
2013-04-22 18:33:00,42.8,4.5,30.39,NE,56,0.0,3.6,20,0.00,,---,0.04,VWS V14.01,2013-04-23 00:33:00,
2013-04-22 18:38:00,42.4,7.3,30.39,NNE,20,4.0,8.1,23,0.00,,---,0.04,VWS V14.01,2013-04-23 00:38:00,
2013-04-22 18:43:00,42.1,5.0,30.39,North,10,4.0,8.1,21,0.00,,---,0.04,VWS V14.01,2013-04-23 00:43:00,
2013-04-22 18:48:00,41.5,4.5,30.39,NNE,16,3.1,7.6,21,0.00,,---,0.04,VWS V14.01,2013-04-23 00:48:00,
2013-04-22 18:53:00,41.7,6.7,30.39,North,4,4.9,7.6,23,0.00,,---,0.04,VWS V14.01,2013-04-23 00:53:00,
2013-04-22 18:58:00,41.5,6.5,30.39,NNW,333,2.7,8.7,23,0.00,,---,0.04,VWS V14.01,2013-04-23 00:58:00,
2013-04-22 19:03:00,41.4,4.4,30.39,NNE,19,5.4,5.8,21,0.00,,---,0.04,VWS V14.01,2013-04-23 01:03:00,
2013-04-22 19:08:00,40.6,3.8,30.39,North,5,2.7,6.3,21,0.00,,---,0.04,VWS V14.01,2013-04-23 01:08:00,
2013-04-22 19:13:00,40.3,5.4,30.39,NNW,341,0.0,6.3,23,0.00,,---,0.04,VWS V14.01,2013-04-23 01:13:00,
2013-04-22 19:18:00,40.1,3.3,30.39,North,353,0.0,3.1,21,0.00,,---,0.04,VWS V14.01,2013-04-23 01:18:00,
2013-04-22 19:23:00,40.1,3.3,30.39,NNE,15,4.0,5.4,21,0.00,,---,0.04,VWS V14.01,2013-04-23 01:23:00,
2013-04-22 19:28:00,40.1,3.3,30.39,NNE,12,3.1,5.8,21,0.00,,---,0.04,VWS V14.01,2013-04-23 01:28:00,
2013-04-22 19:33:00,40.1,3.3,30.39,North,5,3.6,5.4,21,0.00,,---,0.04,VWS V14.01,2013-04-23 01:33:00,
2013-04-22 19:38:00,38.3,4.7,30.39,North,11,4.0,5.4,24,0.00,,---,0.04,VWS V14.01,2013-04-23 01:38:00,
2013-04-22 19:43:00,38.1,4.5,30.39,North,353,0.0,5.4,24,0.00,,---,0.04,VWS V14.01,2013-04-23 01:43:00,
2013-04-22 19:48:00,38.1,4.5,30.39,North,0,0.0,4.9,24,0.00,,---,0.04,VWS V14.01,2013-04-23 01:48:00,
2013-04-22 19:53:00,38.1,4.5,30.39,North,353,0.0,5.4,24,0.00,,---,0.04,VWS V14.01,2013-04-23 01:53:00,
2013-04-22 19:58:00,37.0,6.2,30.36,NNW,346,0.0,5.4,27,0.00,,---,0.04,VWS V14.01,2013-04-23 01:58:00,
2013-04-22 20:03:00,36.7,5.9,30.36,North,9,0.0,3.6,27,0.00,,---,0.04,VWS V14.01,2013-04-23 02:03:00,
2013-04-22 20:08:00,36.1,5.4,30.36,NNW,333,0.0,3.6,27,0.00,,---,0.04,VWS V14.01,2013-04-23 02:08:00,
2013-04-22 20:13:00,35.8,6.7,30.39,NNW,330,0.0,3.6,29,0.00,,---,0.04,VWS V14.01,2013-04-23 02:13:00,
2013-04-22 20:18:00,35.4,7.1,30.39,NW,309,2.7,3.6,30,0.00,,---,0.04,VWS V14.01,2013-04-23 02:18:00,
2013-04-22 20:23:00,35.2,6.9,30.39,NW,310,3.1,3.6,30,0.00,,---,0.04,VWS V14.01,2013-04-23 02:23:00,
2013-04-22 20:28:00,35.1,6.8,30.39,NW,324,2.2,4.0,30,0.00,,---,0.04,VWS V14.01,2013-04-23 02:28:00,
2013-04-22 20:33:00,34.9,6.6,30.39,WNW,287,2.7,3.1,30,0.00,,---,0.04,VWS V14.01,2013-04-23 02:33:00,
2013-04-22 20:38:00,34.7,6.4,30.39,NW,313,0.0,5.4,30,0.00,,---,0.04,VWS V14.01,2013-04-23 02:38:00,
2013-04-22 20:43:00,34.3,6.9,30.39,NW,305,0.0,5.4,31,0.00,,---,0.04,VWS V14.01,2013-04-23 02:43:00,
2013-04-22 20:48:00,34.2,6.7,30.39,WNW,303,3.1,3.6,31,0.00,,---,0.04,VWS V14.01,2013-04-23 02:48:00,
2013-04-22 20:53:00,33.8,6.4,30.39,North,357,3.1,4.0,31,0.00,,---,0.04,VWS V14.01,2013-04-23 02:53:00,
2013-04-22 20:58:00,33.8,6.4,30.39,NW,311,0.0,4.0,31,0.00,,---,0.04,VWS V14.01,2013-04-23 02:58:00,
2013-04-22 21:03:00,33.6,6.9,30.39,NW,315,0.0,4.0,32,0.00,,---,0.04,VWS V14.01,2013-04-23 03:03:00,
2013-04-22 21:08:00,33.3,6.6,30.39,NW,305,0.0,4.0,32,0.00,,---,0.04,VWS V14.01,2013-04-23 03:08:00,
2013-04-22 21:13:00,33.1,6.4,30.39,NW,304,2.7,4.0,32,0.00,,---,0.04,VWS V14.01,2013-04-23 03:13:00,
2013-04-22 21:18:00,32.7,6.8,30.39,WNW,296,3.6,4.0,33,0.00,,---,0.04,VWS V14.01,2013-04-23 03:18:00,
2013-04-22 21:23:00,32.7,6.8,30.39,NW,306,3.1,5.4,33,0.00,,---,0.04,VWS V14.01,2013-04-23 03:23:00,
2013-04-22 21:28:00,32.7,7.5,30.42,WNW,284,3.1,5.4,34,0.00,,---,0.04,VWS V14.01,2013-04-23 03:28:00,
2013-04-22 21:33:00,32.5,7.3,30.42,NW,311,2.7,5.8,34,0.00,,---,0.04,VWS V14.01,2013-04-23 03:33:00,
2013-04-22 21:38:00,32.5,7.3,30.42,NW,307,3.1,5.8,34,0.00,,---,0.04,VWS V14.01,2013-04-23 03:38:00,
2013-04-22 21:43:00,32.0,6.8,30.42,NW,305,3.1,5.8,34,0.00,,---,0.04,VWS V14.01,2013-04-23 03:43:00,
2013-04-22 21:48:00,31.5,6.3,30.42,NW,305,0.0,2.2,34,0.00,,---,0.04,VWS V14.01,2013-04-23 03:48:00,
2013-04-22 21:53:00,31.1,6.0,30.42,West,280,0.0,3.1,34,0.00,,---,0.04,VWS V14.01,2013-04-23 03:53:00,
2013-04-22 21:58:00,30.7,5.7,30.42,West,280,0.0,3.1,34,0.00,,---,0.04,VWS V14.01,2013-04-23 03:58:00,
2013-04-22 22:01:00,30.6,5.5,30.42,West,280,0.0,0.0,34,0.00,,---,0.04,VWS V14.01,2013-04-23 04:01:00,
2013-04-22 22:06:00,30.0,6.3,30.42,WNW,301,0.0,0.0,36,0.00,,---,0.04,VWS V14.01,2013-04-23 04:06:00,
2013-04-22 22:11:00,29.5,6.4,30.42,West,281,0.0,0.0,37,0.00,,---,0.04,VWS V14.01,2013-04-23 04:11:00,
2013-04-22 22:16:00,28.9,5.9,30.42,WNW,298,0.0,2.7,37,0.00,,---,0.04,VWS V14.01,2013-04-23 04:16:00,
2013-04-22 22:21:00,28.2,5.3,30.42,West,273,0.0,3.1,37,0.00,,---,0.04,VWS V14.01,2013-04-23 04:21:00,
2013-04-22 22:26:00,27.5,4.7,30.42,West,266,0.0,3.1,37,0.00,,---,0.04,VWS V14.01,2013-04-23 04:26:00,
2013-04-22 22:31:00,27.3,4.5,30.42,West,265,0.0,0.0,37,0.00,,---,0.04,VWS V14.01,2013-04-23 04:31:00,
2013-04-22 22:36:00,27.0,4.8,30.42,WSW,256,0.0,2.7,38,0.00,,---,0.04,VWS V14.01,2013-04-23 04:36:00,
2013-04-22 22:41:00,26.6,5.6,30.42,WSW,252,2.7,3.6,40,0.00,,---,0.04,VWS V14.01,2013-04-23 04:41:00,
2013-04-22 22:46:00,26.4,5.9,30.42,West,274,0.0,0.0,41,0.00,,---,0.04,VWS V14.01,2013-04-23 04:46:00,
2013-04-22 22:51:00,26.1,6.1,30.42,West,264,0.0,0.0,42,0.00,,---,0.04,VWS V14.01,2013-04-23 04:51:00,
2013-04-22 22:56:00,25.9,6.5,30.42,West,279,0.0,0.0,43,0.00,,---,0.04,VWS V14.01,2013-04-23 04:56:00,
2013-04-22 23:01:00,25.5,6.2,30.42,West,279,0.0,0.0,43,0.00,,---,0.04,VWS V14.01,2013-04-23 05:01:00,
2013-04-22 23:06:00,25.3,6.0,30.42,West,279,0.0,0.0,43,0.00,,---,0.04,VWS V14.01,2013-04-23 05:06:00,
2013-04-22 23:11:00,25.2,5.8,30.42,SSW,196,0.0,0.0,43,0.00,,---,0.04,VWS V14.01,2013-04-23 05:11:00,
2013-04-22 23:16:00,25.0,5.7,30.42,SSW,195,0.0,0.0,43,0.00,,---,0.04,VWS V14.01,2013-04-23 05:16:00,
2013-04-22 23:21:00,24.4,5.7,30.42,SSW,195,0.0,0.0,44,0.00,,---,0.04,VWS V14.01,2013-04-23 05:21:00,
2013-04-22 23:26:00,24.3,5.5,30.42,SSW,195,0.0,0.0,44,0.00,,---,0.04,VWS V14.01,2013-04-23 05:26:00,
2013-04-22 23:31:00,24.1,5.3,30.42,SSW,195,0.0,0.0,44,0.00,,---,0.04,VWS V14.01,2013-04-23 05:31:00,
2013-04-22 23:36:00,23.7,5.0,30.42,SSW,208,0.0,0.0,44,0.00,,---,0.04,VWS V14.01,2013-04-23 05:36:00,
2013-04-22 23:41:00,23.7,5.0,30.42,WSW,250,0.0,3.1,44,0.00,,---,0.04,VWS V14.01,2013-04-23 05:41:00,
2013-04-22 23:46:00,23.5,5.3,30.39,WSW,250,0.0,0.0,45,0.00,,---,0.04,VWS V14.01,2013-04-23 05:46:00,
2013-04-22 23:51:00,23.4,5.7,30.39,WSW,250,0.0,0.0,46,0.00,,---,0.04,VWS V14.01,2013-04-23 05:51:00,
2013-04-22 23:56:00,23.2,5.5,30.39,WSW,250,0.0,0.0,46,0.00,,---,0.04,VWS V14.01,2013-04-23 05:56:00,